Location: Gudip?du
(17.0263°N, 80.8301°E)
Time: 00:33:01
(UTC+00:00)

NOSS 2-1 (C) - Pass Details

Date: 03 August 2024
Orbit: 384 x 1731 km, 63.3° (Epoch: 18 September)

Event Time Altitude Azimuth Distance (km) Brightness Sun altitude
Rises 14:44:27 0° 216° (SW) 3,453 7.5 -22.0°
Maximum altitude 14:52:11 41° 293° (WNW) 860 4.7 -23.7°
Drops below altitude 10° 14:55:43 10° 5° (N) 1,693 6.1 -24.4°
Sets 14:57:39 0° 14° (NNE) 2,462 6.8 -24.8°
